| time (UTC) | temp C | wind direction | speed KPH | gust KPH | rain 1hr cm | rain 24hr cm | rain mn cm | humidity % | barometer mb |
| 20260505061405 | 8 | 98 | 0.0 | 1.6 | 0.00 | 0.00 | 0.00 | 92 | 1014.6 |
| 20260505060905 | 8 | 104 | 0.0 | 4.8 | 0.00 | 0.00 | 0.00 | 92 | 1014.6 |
| 20260505060405 | 8 | 93 | 0.0 | 1.6 | 0.00 | 0.00 | 0.00 | 93 | 1014.6 |
| 20260505055405 | 7 | 49 | 0.0 | 1.6 | 0.00 | 0.00 | 0.00 | 93 | 1014.6 |
| 20260505054905 | 7 | 124 | 0.0 | 4.8 | 0.00 | 0.00 | 0.00 | 93 | 1014.6 |
| 20260505054405 | 7 | 103 | 0.0 | 1.6 | 0.00 | 0.00 | 0.00 | 93 | 1014.6 |
| 20260505053905 | 7 | 112 | 0.0 | 1.6 | 0.00 | 0.00 | 0.00 | 94 | 1014.6 |
| 20260505053405 | 7 | 108 | 0.0 | 1.6 | 0.00 | 0.00 | 0.00 | 94 | 1014.6 |
| 20260505052904 | 7 | 26 | 1.6 | 4.8 | 0.00 | 0.00 | 0.00 | 94 | 1014.6 |
| 20260505052405 | 7 | 90 | 0.0 | 4.8 | 0.00 | 0.00 | 0.00 | 94 | 1014.6 |
| 20260505051905 | 7 | 106 | 0.0 | 1.6 | 0.00 | 0.00 | 0.00 | 94 | 1014.5 |
| 20260505051405 | 7 | 125 | 0.0 | 4.8 | 0.00 | 0.00 | 0.00 | 94 | 1014.6 |
| 20260505050905 | 7 | 75 | 0.0 | 3.2 | 0.00 | 0.00 | 0.00 | 95 | 1014.6 |
| 20260505050405 | 7 | 109 | 0.0 | 1.6 | 0.00 | 0.00 | 0.00 | 95 | 1014.6 |
| 20260505041405 | 7 | 86 | 0.0 | 0.0 | 0.00 | 0.00 | 0.00 | 95 | 1014.5 |
| 20260505040904 | 7 | 86 | 0.0 | 1.6 | 0.00 | 0.00 | 0.00 | 95 | 1014.4 |
| 20260505040404 | 7 | 86 | 0.0 | 0.0 | 0.00 | 0.00 | 0.00 | 96 | 1014.4 |
| 20260505035904 | 7 | 86 | 0.0 | 1.6 | 0.00 | 0.00 | 0.00 | 96 | 1014.4 |
| 20260505035404 | 7 | 86 | 0.0 | 1.6 | 0.00 | 0.00 | 0.00 | 96 | 1014.4 |
| 20260505033905 | 7 | 102 | 0.0 | 0.0 | 0.00 | 0.00 | 0.00 | 96 | 1014.4 |
| 20260505033405 | 7 | 102 | 0.0 | 1.6 | 0.00 | 0.00 | 0.00 | 96 | 1014.5 |
| 20260505032404 | 7 | 102 | 0.0 | 0.0 | 0.00 | 0.00 | 0.00 | 96 | 1014.6 |
| 20260505031905 | 7 | 102 | 0.0 | 0.0 | 0.00 | 0.00 | 0.00 | 96 | 1014.6 |
| 20260505031412 | 6 | 102 | 0.0 | 3.2 | 0.00 | 0.00 | 0.00 | 96 | 1014.6 |
| 20260505030905 | 6 | 106 | 0.0 | 1.6 | 0.00 | 0.00 | 0.00 | 95 | 1014.7 |
| 20260505030404 | 6 | 106 | 0.0 | 0.0 | 0.00 | 0.00 | 0.00 | 95 | 1014.7 |
| 20260505025905 | 6 | 106 | 0.0 | 0.0 | 0.00 | 0.00 | 0.00 | 94 | 1014.6 |
| 20260505025405 | 6 | 106 | 0.0 | 0.0 | 0.00 | 0.00 | 0.00 | 94 | 1014.7 |
| 20260505024405 | 6 | 106 | 0.0 | 0.0 | 0.00 | 0.00 | 0.00 | 93 | 1014.6 |
| 20260505023904 | 6 | 106 | 0.0 | 0.0 | 0.00 | 0.00 | 0.00 | 93 | 1014.6 |
| 20260505023405 | 6 | 106 | 0.0 | 1.6 | 0.00 | 0.00 | 0.00 | 93 | 1014.6 |
| 20260505022905 | 6 | 106 | 0.0 | 0.0 | 0.00 | 0.00 | 0.00 | 93 | 1014.7 |
| 20260505022405 | 7 | 106 | 0.0 | 0.0 | 0.00 | 0.00 | 0.00 | 93 | 1014.7 |
| 20260505021905 | 7 | 106 | 0.0 | 0.0 | 0.00 | 0.00 | 0.00 | 92 | 1014.7 |
| 20260505021405 | 7 | 106 | 0.0 | 0.0 | 0.00 | 0.00 | 0.00 | 92 | 1014.7 |
| 20260505020905 | 7 | 106 | 0.0 | 0.0 | 0.00 | 0.00 | 0.00 | 92 | 1014.8 |
| 20260505020404 | 7 | 106 | 0.0 | 0.0 | 0.00 | 0.00 | 0.00 | 91 | 1014.9 |
| 20260505015904 | 7 | 106 | 0.0 | 0.0 | 0.00 | 0.00 | 0.00 | 91 | 1014.8 |
| 20260505015405 | 7 | 106 | 0.0 | 0.0 | 0.00 | 0.00 | 0.00 | 91 | 1014.8 |
| 20260505014905 | 7 | 106 | 0.0 | 1.6 | 0.00 | 0.00 | 0.00 | 91 | 1014.7 |
| 20260505014405 | 7 | 106 | 0.0 | 1.6 | 0.00 | 0.00 | 0.00 | 91 | 1014.8 |
| 20260505013904 | 7 | 106 | 0.0 | 0.0 | 0.00 | 0.00 | 0.00 | 90 | 1014.9 |
| 20260505013405 | 7 | 146 | 0.0 | 1.6 | 0.00 | 0.00 | 0.00 | 90 | 1014.9 |
| 20260505012905 | 8 | 147 | 0.0 | 0.0 | 0.00 | 0.00 | 0.00 | 90 | 1015.0 |
| 20260505012404 | 8 | 148 | 0.0 | 1.6 | 0.00 | 0.00 | 0.00 | 90 | 1015.0 |
| 20260505011405 | 8 | 104 | 0.0 | 1.6 | 0.00 | 0.00 | 0.00 | 89 | 1015.1 |
| 20260505010905 | 8 | 123 | 0.0 | 1.6 | 0.00 | 0.00 | 0.00 | 89 | 1015.1 |
| 20260505010405 | 8 | 123 | 0.0 | 1.6 | 0.00 | 0.00 | 0.00 | 89 | 1015.2 |
| 20260505005905 | 8 | 117 | 0.0 | 1.6 | 0.00 | 0.00 | 0.00 | 89 | 1015.2 |
| 20260505005404 | 9 | 72 | 0.0 | 0.0 | 0.00 | 0.00 | 0.00 | 89 | 1015.1 |
| 20260505004905 | 9 | 72 | 0.0 | 1.6 | 0.00 | 0.00 | 0.00 | 90 | 1015.1 |
| 20260505004405 | 9 | 71 | 0.0 | 1.6 | 0.00 | 0.00 | 0.00 | 90 | 1015.1 |
| 20260505003904 | 9 | 71 | 0.0 | 0.0 | 0.00 | 0.00 | 0.00 | 90 | 1015.1 |
| 20260505003404 | 9 | 79 | 0.0 | 1.6 | 0.00 | 0.00 | 0.00 | 90 | 1015.2 |
| 20260505002405 | 10 | 84 | 0.0 | 1.6 | 0.00 | 0.00 | 0.00 | 90 | 1015.3 |
| 20260505001904 | 10 | 84 | 0.0 | 0.0 | 0.00 | 0.00 | 0.00 | 91 | 1015.3 |
| 20260505001404 | 10 | 84 | 0.0 | 1.6 | 0.00 | 0.00 | 0.00 | 91 | 1015.3 |
| 20260505000904 | 10 | 68 | 0.0 | 0.0 | 0.00 | 0.00 | 0.00 | 91 | 1015.3 |
| 20260504235904 | 10 | 68 | 0.0 | 1.6 | 0.00 | 0.00 | 0.00 | 91 | 1015.4 |
| 20260504235404 | 10 | 68 | 0.0 | 0.0 | 0.00 | 0.00 | 0.00 | 91 | 1015.4 |
| 20260504234904 | 10 | 68 | 0.0 | 1.6 | 0.00 | 0.00 | 0.00 | 91 | 1015.4 |
| 20260504234404 | 10 | 68 | 0.0 | 1.6 | 0.00 | 0.00 | 0.00 | 91 | 1015.4 |
| 20260504232905 | 10 | 75 | 0.0 | 1.6 | 0.00 | 0.00 | 0.00 | 92 | 1015.4 |
| 20260504232405 | 10 | 79 | 0.0 | 1.6 | 0.00 | 0.00 | 0.00 | 92 | 1015.4 |
| 20260504231905 | 10 | 79 | 0.0 | 1.6 | 0.00 | 0.00 | 0.00 | 92 | 1015.4 |
| 20260504231405 | 10 | 89 | 0.0 | 1.6 | 0.00 | 0.00 | 0.00 | 93 | 1015.4 |
| 20260504230405 | 10 | 89 | 0.0 | 1.6 | 0.00 | 0.00 | 0.00 | 94 | 1015.4 |
| 20260504225904 | 9 | 77 | 0.0 | 1.6 | 0.00 | 0.00 | 0.00 | 94 | 1015.5 |
| 20260504225405 | 9 | 117 | 0.0 | 1.6 | 0.00 | 0.00 | 0.00 | 95 | 1015.5 |
| 20260504224904 | 9 | 117 | 0.0 | 0.0 | 0.00 | 0.00 | 0.00 | 95 | 1015.5 |
| 20260504224404 | 9 | 117 | 0.0 | 1.6 | 0.00 | 0.00 | 0.00 | 95 | 1015.5 |
| 20260504223905 | 9 | 117 | 0.0 | 1.6 | 0.00 | 0.00 | 0.00 | 95 | 1015.5 |
| 20260504223404 | 9 | 117 | 0.0 | 1.6 | 0.00 | 0.00 | 0.00 | 95 | 1015.5 |
| 20260504222404 | 9 | 117 | 0.0 | 1.6 | 0.00 | 0.00 | 0.00 | 96 | 1015.7 |
| 20260504221906 | 9 | 117 | 0.0 | 1.6 | 0.00 | 0.00 | 0.00 | 96 | 1015.7 |
| 20260504221404 | 8 | 117 | 0.0 | 1.6 | 0.00 | 0.00 | 0.00 | 96 | 1015.7 |
| 20260504220404 | 8 | 117 | 0.0 | 0.0 | 0.00 | 0.00 | 0.00 | 96 | 1015.6 |
| 20260504215904 | 8 | 117 | 0.0 | 0.0 | 0.00 | 0.00 | 0.00 | 96 | 1015.7 |
| 20260504215404 | 8 | 117 | 0.0 | 0.0 | 0.00 | 0.00 | 0.00 | 95 | 1015.6 |
| 20260504214905 | 8 | 117 | 0.0 | 0.0 | 0.00 | 0.00 | 0.00 | 95 | 1015.6 |
| 20260504213904 | 8 | 117 | 0.0 | 0.0 | 0.00 | 0.00 | 0.00 | 94 | 1015.7 |
| 20260504213404 | 8 | 117 | 0.0 | 0.0 | 0.00 | 0.00 | 0.00 | 94 | 1015.7 |
| 20260504212904 | 8 | 117 | 0.0 | 0.0 | 0.00 | 0.00 | 0.00 | 93 | 1015.6 |
| 20260504211905 | 9 | 117 | 0.0 | 0.0 | 0.00 | 0.00 | 0.00 | 91 | 1015.5 |
| 20260504211404 | 9 | 117 | 0.0 | 0.0 | 0.00 | 0.00 | 0.00 | 91 | 1015.5 |
| 20260504210905 | 9 | 117 | 0.0 | 0.0 | 0.00 | 0.00 | 0.00 | 90 | 1015.6 |
| 20260504210405 | 10 | 117 | 0.0 | 0.0 | 0.00 | 0.00 | 0.00 | 90 | 1015.5 |
| 20260504205905 | 10 | 117 | 0.0 | 0.0 | 0.00 | 0.00 | 0.00 | 89 | 1015.4 |
| 20260504205404 | 10 | 117 | 0.0 | 0.0 | 0.00 | 0.00 | 0.00 | 89 | 1015.4 |
| 20260504204904 | 10 | 117 | 0.0 | 0.0 | 0.00 | 0.00 | 0.00 | 88 | 1015.4 |
| 20260504204404 | 11 | 117 | 0.0 | 0.0 | 0.00 | 0.00 | 0.00 | 88 | 1015.4 |
| 20260504203905 | 11 | 117 | 0.0 | 1.6 | 0.00 | 0.00 | 0.00 | 88 | 1015.4 |
| 20260504203404 | 11 | 117 | 0.0 | 0.0 | 0.00 | 0.00 | 0.00 | 87 | 1015.4 |
| 20260504202904 | 11 | 117 | 0.0 | 0.0 | 0.00 | 0.00 | 0.00 | 87 | 1015.4 |
| 20260504202404 | 11 | 117 | 0.0 | 0.0 | 0.00 | 0.00 | 0.00 | 86 | 1015.3 |
| 20260504201904 | 11 | 117 | 0.0 | 1.6 | 0.00 | 0.00 | 0.00 | 86 | 1015.3 |
| 20260504201404 | 11 | 46 | 0.0 | 1.6 | 0.00 | 0.00 | 0.00 | 85 | 1015.3 |
| 20260504200905 | 11 | 30 | 0.0 | 1.6 | 0.00 | 0.00 | 0.00 | 85 | 1015.3 |
| 20260504195405 | 12 | 72 | 0.0 | 1.6 | 0.00 | 0.00 | 0.00 | 84 | 1015.2 |
| 20260504194404 | 12 | 79 | 0.0 | 1.6 | 0.00 | 0.00 | 0.00 | 84 | 1015.1 |
| 20260504193904 | 12 | 79 | 0.0 | 0.0 | 0.00 | 0.00 | 0.00 | 83 | 1015.1 |
| 20260504193404 | 12 | 37 | 0.0 | 1.6 | 0.00 | 0.00 | 0.00 | 83 | 1015.1 |
| 20260504192905 | 12 | 79 | 0.0 | 1.6 | 0.00 | 0.00 | 0.00 | 83 | 1015.1 |
| 20260504192415 | 12 | 78 | 0.0 | 1.6 | 0.00 | 0.00 | 0.00 | 83 | 1015.1 |
| 20260504191415 | 12 | 118 | 0.0 | 1.6 | 0.00 | 0.00 | 0.00 | 83 | 1015.0 |
| 20260504190404 | 12 | 18 | 0.0 | 1.6 | 0.00 | 0.00 | 0.00 | 83 | 1014.9 |
| 20260504185404 | 12 | 110 | 0.0 | 1.6 | 0.00 | 0.00 | 0.00 | 82 | 1014.9 |
| 20260504184904 | 12 | 348 | 0.0 | 3.2 | 0.00 | 0.00 | 0.00 | 82 | 1014.9 |
| 20260504184404 | 12 | 62 | 0.0 | 1.6 | 0.00 | 0.00 | 0.00 | 81 | 1014.8 |
| 20260504183904 | 12 | 46 | 0.0 | 3.2 | 0.00 | 0.00 | 0.00 | 81 | 1014.8 |
| 20260504183404 | 12 | 92 | 0.0 | 3.2 | 0.00 | 0.00 | 0.00 | 81 | 1014.8 |
| 20260504182904 | 13 | 100 | 0.0 | 3.2 | 0.00 | 0.00 | 0.00 | 80 | 1014.7 |
| 20260504182404 | 13 | 32 | 0.0 | 1.6 | 0.00 | 0.00 | 0.00 | 80 | 1014.6 |
| 20260504181904 | 13 | 120 | 0.0 | 1.6 | 0.00 | 0.00 | 0.00 | 80 | 1014.5 |
| 20260504181403 | 13 | 66 | 0.0 | 1.6 | 0.00 | 0.00 | 0.00 | 79 | 1014.5 |
| 20260504180904 | 13 | 51 | 0.0 | 1.6 | 0.00 | 0.00 | 0.00 | 78 | 1014.5 |
| 20260504180404 | 13 | 86 | 0.0 | 1.6 | 0.00 | 0.00 | 0.00 | 78 | 1014.5 |
| 20260504175904 | 13 | 41 | 0.0 | 1.6 | 0.00 | 0.00 | 0.00 | 78 | 1014.6 |
| 20260504175404 | 13 | 43 | 0.0 | 1.6 | 0.00 | 0.00 | 0.00 | 79 | 1014.6 |
| 20260504174904 | 13 | 142 | 0.0 | 1.6 | 0.00 | 0.00 | 0.00 | 79 | 1014.5 |
| 20260504174404 | 13 | 52 | 0.0 | 3.2 | 0.00 | 0.00 | 0.00 | 79 | 1014.6 |
| 20260504173904 | 13 | 92 | 0.0 | 1.6 | 0.00 | 0.00 | 0.00 | 79 | 1014.5 |
| 20260504173404 | 13 | 51 | 0.0 | 1.6 | 0.00 | 0.00 | 0.00 | 80 | 1014.6 |
| 20260504172904 | 13 | 117 | 1.6 | 3.2 | 0.00 | 0.00 | 0.00 | 79 | 1014.7 |
| 20260504172404 | 13 | 115 | 0.0 | 1.6 | 0.00 | 0.00 | 0.00 | 80 | 1014.6 |
| 20260504171904 | 13 | 25 | 0.0 | 1.6 | 0.00 | 0.00 | 0.00 | 80 | 1014.7 |
| 20260504170905 | 13 | 22 | 0.0 | 1.6 | 0.00 | 0.00 | 0.00 | 80 | 1014.7 |
| 20260504170404 | 13 | 112 | 0.0 | 1.6 | 0.00 | 0.00 | 0.00 | 80 | 1014.7 |
| 20260504160404 | 13 | 8 | 0.0 | 1.6 | 0.00 | 0.00 | 0.00 | 76 | 1014.8 |
| 20260504150404 | 15 | 120 | 0.0 | 1.6 | 0.00 | 0.00 | 0.00 | 72 | 1014.7 |
| 20260504140906 | 14 | 332 | 0.0 | 3.2 | 0.00 | 0.00 | 0.00 | 73 | 1014.9 |
| 20260504140406 | 14 | 79 | 0.0 | 1.6 | 0.00 | 0.00 | 0.00 | 73 | 1014.9 |
| 20260504110405 | 11 | 54 | 0.0 | 3.2 | 0.00 | 0.00 | 0.00 | 89 | 1015.7 |
| 20260504100405 | 11 | 103 | 0.0 | 1.6 | 0.00 | 0.00 | 0.00 | 90 | 1015.2 |
| 20260504081405 | 10 | 93 | 0.0 | 1.6 | 0.00 | 0.00 | 0.00 | 96 | 1014.7 |
| 20260504080905 | 10 | 100 | 0.0 | 1.6 | 0.00 | 0.00 | 0.00 | 96 | 1014.7 |
| 20260504070405 | 9 | 57 | 0.0 | 1.6 | 0.00 | 0.00 | 0.00 | 96 | 1014.3 |